STARLINK-32720

Last updated on Wed Jan 29 2025 00:02:04 GMT+0000 (Coordinated Universal Time)

1 62451U 24251V 25028.50002315 -.00049956 00000+0 -12467-2 0 9991 2 62451 53.1597 66.6554 0001387 91.9061 187.0727 15.39629446 5474
UTC large
Height (km)
Speed (km/s)
/
Latitude / Longitude
Inclination (degrees)
Orbital Period (minutes)
Azimuth
Elevation
Range (km)
Doppler Factor

Next 0 passes for location: London (51.5072 / 0.1276)

Sorry there are no passes over London.